Stations météo

réclame
Mon MeteoGroup
Greifswald, Allemagne (10184): Température de l'air & dewpoint: 17.11.2017 12:00:00 - 23.11.2017 12:00:00 (CET)Greifswald, Allemagne (10184): Température de l'air 5cm & Température de l'air -5cm: 17.11.2017 12:00:00 - 23.11.2017 12:00:00 (CET)Greifswald, Allemagne (10184): Température de l'air -20cm & Température de l'air -100cm: 17.11.2017 12:00:00 - 23.11.2017 12:00:00 (CET)Greifswald, Allemagne (10184): Vitesse du vent & gusts: 17.11.2017 12:00:00 - 23.11.2017 12:00:00 (CET)Greifswald, Allemagne (10184): Direction du vent: 17.11.2017 12:00:00 - 23.11.2017 12:00:00 (CET)Greifswald, Allemagne (10184): reduced air pressure: 17.11.2017 12:00:00 - 23.11.2017 12:00:00 (CET)Greifswald, Allemagne (10184): visibility: 17.11.2017 12:00:00 - 23.11.2017 12:00:00 (CET)Greifswald, Allemagne (10184): Ensoleillement: 17.11.2017 12:00:00 - 23.11.2017 12:00:00 (CET)Greifswald, Allemagne (10184): Quantités de précipitations: 17.11.2017 12:00:00 - 23.11.2017 12:00:00 (CET)
Date & Time tt [°C] td [°C] tt 5cm [°C] tt -5cm [°C] tt -20cm [°C] tt -100cm [°C] ff [km/h] ff [knt] fx [km/h] fx [knt] dd ppp [hPa] vv [km] sd [min] rr [mm]
23.11.2017 12:00:00 8,8 4,0 8,4 6,0 5,0 8,1 13 7 33 18 S 1001,4 45 0 0,0
23.11.2017 11:00:00 8,1 3,7 7,7 5,1 4,8 8,1 20 11 34 18 S 1002,3 48 0 0,0
23.11.2017 10:00:00 7,1 3,3 6,4 4,2 4,7 8,1 12 7 29 16 S 1002,5 40 0 0,0
23.11.2017 09:00:00 6,2 2,9 5,2 3,4 4,8 8,2 13 7 30 16 S 1002,9 38 0 0,0
23.11.2017 08:00:00 6,0 2,7 4,6 2,9 4,9 8,2 14 8 31 17 S 1002,9 30 0 0,0
23.11.2017 07:00:00 5,9 2,7 4,5 2,9 5,0 8,2 15 8 27 14 S 1003,1 30 0 0,0
23.11.2017 06:00:00 5,8 2,8 4,1 2,8 5,2 8,2 14 7 29 16 S 1003,3 23 0 0,0
23.11.2017 05:00:00 5,6 3,1 3,7 3,1 5,4 8,2 11 6 28 15 S 1003,4 20 0 0,0
23.11.2017 04:00:00 5,8 3,5 3,9 3,4 5,6 8,2 12 6 26 14 S 1003,9 19 0 0,0
23.11.2017 03:00:00 6,1 3,9 4,2 3,7 5,9 8,2 10 5 27 14 S 1004,1 17 0 0,0
23.11.2017 02:00:00 6,4 4,2 4,9 4,1 6,1 8,2 13 7 25 14 S 1004,4 17 0 0,0
23.11.2017 01:00:00 6,5 4,6 4,7 4,6 6,3 8,2 11 6 27 14 S 1004,7 17 0 0,0
23.11.2017 00:00:00 7,1 5,0 5,4 5,0 6,5 8,2 13 7 27 15 S 1005,0 17 0 0,0
22.11.2017 23:00:00 7,3 5,6 5,4 5,6 6,7 8,2 12 7 26 14 S 1005,0 16 0 0,0
22.11.2017 22:00:00 8,4 6,2 6,9 6,3 6,9 8,2 16 9 32 17 SSW 1005,1 18 0 0,0
22.11.2017 21:00:00 8,7 6,9 7,5 7,1 6,9 8,2 18 10 32 18 SSW 1005,2 15 0 0,0
22.11.2017 20:00:00 9,7 7,8 9,2 8,0 6,8 8,2 15 8 31 17 SW 1005,6 12 0 0,0
22.11.2017 19:00:00 10,0 8,3 9,6 8,1 6,7 8,2 14 8 32 17 SW 1005,7 10 0 0,0
22.11.2017 18:00:00 9,9 8,5 9,5 8,1 6,6 8,2 16 9 32 18 SSW 1005,3 14 0 0,0
22.11.2017 17:00:00 9,9 8,7 9,2 8,0 6,5 8,2 16 9 31 17 SSW 1005,2 15 0 0,7
22.11.2017 16:00:00 9,9 8,8 9,2 8,1 6,3 8,2 14 8 34 18 SSW 1005,2 6 0 0,1
22.11.2017 15:00:00 10,1 8,6 9,7 8,0 6,1 8,2 16 9 28 15 SW 1005,1 10 0 0,0
22.11.2017 14:00:00 10,0 8,6 9,6 7,9 5,9 8,3 14 8 29 16 SW 1004,8 14 0 0,0
22.11.2017 13:00:00 9,8 8,5 9,3 7,7 5,6 8,3 14 8 24 13 SW 1004,5 15 0 0,0
22.11.2017 12:00:00 9,5 8,2 8,9 7,1 5,4 8,3 13 7 30 16 SW 1004,4 12 0 0,1
22.11.2017 11:00:00 9,0 8,4 8,7 6,7 5,1 8,3 15 8 28 15 SSW 1004,3 2,5 0 0,9
22.11.2017 10:00:00 8,6 8,0 8,3 5,9 4,9 8,3 11 6 19 10 SSW 1004,1 2,3 0 1,4
22.11.2017 09:00:00 7,6 7,0 7,2 5,2 4,8 8,3 10 6 18 10 S 1003,7 7 0 0,1
22.11.2017 08:00:00 6,5 6,1 6,3 4,8 4,7 8,3 8 5 17 9 S 1003,6 4,6 0 0,0
22.11.2017 07:00:00 5,7 5,3 5,4 4,5 4,6 8,3 8 4 21 12 S 1003,7 8 0 0,0
22.11.2017 06:00:00 4,8 4,3 4,6 4,2 4,6 8,3 13 7 23 12 S 1004,1 4,0 0 0,5
22.11.2017 05:00:00 4,3 3,7 4,2 4,1 4,6 8,3 16 8 29 15 SSE 1004,6 4,0 0 1,3
22.11.2017 04:00:00 4,0 3,3 3,8 4,0 4,6 8,3 13 7 29 15 SSE 1005,3 4,0 0 1,0
22.11.2017 03:00:00 3,8 2,9 3,6 3,9 4,6 8,3 15 8 30 16 SE 1006,0 3,5 0 0,0
22.11.2017 02:00:00 3,9 2,4 3,7 3,9 4,6 8,4 15 8 31 17 SE 1007,2 10 0 0,0
22.11.2017 01:00:00 4,0 2,5 3,8 3,9 4,6 8,4 14 8 29 15 SE 1007,9 12 0 0,0
22.11.2017 00:00:00 4,0 2,5 3,8 3,9 4,7 8,4 10 5 20 11 SE 1008,9 12 0 0,0
21.11.2017 23:00:00 3,9 2,4 3,8 4,0 4,7 8,4 8 4 19 11 ESE 1009,5 11 0 0,0
21.11.2017 22:00:00 3,9 2,2 3,8 4,0 4,7 8,4 10 5 19 10 ESE 1009,7 13 0 0,0
21.11.2017 21:00:00 3,9 2,2 3,8 4,1 4,7 8,4 9 5 15 8 SE 1010,3 10 0 0,0
21.11.2017 20:00:00 3,9 2,4 3,8 4,2 4,8 8,4 8 4 12 7 E 1010,4 10 0 0,0
21.11.2017 19:00:00 3,9 2,3 3,9 4,3 4,8 8,4 7 4 14 8 SE 1010,5 10 0 0,0
21.11.2017 18:00:00 4,0 2,4 3,9 4,4 4,8 8,4 9 5 14 8 SE 1010,4 10 0 0,0
21.11.2017 17:00:00 4,0 2,3 3,9 4,6 4,8 8,4 5 3 14 8 SE 1010,6 18 0 0,0
21.11.2017 16:00:00 4,2 2,3 4,1 5,0 4,7 8,4 6 3 10 5 ESE 1010,4 16 0 0,0
21.11.2017 15:00:00 4,3 2,3 4,5 5,4 4,5 8,5 6 4 9 5 SE 1010,5 16 0 0,0
21.11.2017 14:00:00 4,5 2,3 5,0 5,7 4,3 8,5 2 1 13 7 SSE 1010,4 19 0 0,0
21.11.2017 13:00:00 4,4 2,4 5,2 5,3 4,0 8,5 10 5 16 9 S 1010,4 10 0 0,0
21.11.2017 12:00:00 4,4 2,3 5,1 4,8 3,7 8,5 7 4 13 7 SSE 1011,1 11 0 0,0
21.11.2017 11:00:00 4,2 2,6 4,2 3,9 3,5 8,5 6 4 13 7 SSE 1011,2 9 0 0,0
21.11.2017 10:00:00 3,4 2,5 3,8 2,8 3,4 8,5 5 3 9 5 S 1011,1 8 0 0,0
21.11.2017 09:00:00 2,0 1,8 1,8 1,9 3,4 8,5 4 2 6 4 ESE 1010,9 1,8 0 0,0
21.11.2017 08:00:00 1,8 1,6 0,7 1,5 3,5 8,5 4 2 7 4 SSE 1010,6 0,3 0 0,0
21.11.2017 07:00:00 1,9 1,5 -0,5 1,8 3,6 8,5 6 3 10 5 SSE 1010,1 4,0 0 0,0
21.11.2017 06:00:00 2,8 2,2 1,6 2,3 3,5 8,5 4 2 9 5 S 1010,5 7 0 0,0
21.11.2017 05:00:00 3,3 2,5 2,9 2,3 3,5 8,5 6 3 11 6 SSW 1010,5 9 0 0,0
21.11.2017 04:00:00 2,8 2,2 1,7 2,1 3,6 8,5 4 2 9 5 SSE 1010,4 10 0 0,0
21.11.2017 03:00:00 2,8 2,1 2,2 2,0 3,6 8,6 3 2 9 5 S 1010,6 12 0 0,0
21.11.2017 02:00:00 3,0 2,3 2,0 1,8 3,7 8,6 7 4 12 6 SSW 1010,6 14 0 0,0
21.11.2017 01:00:00 2,9 2,1 1,8 2,0 3,7 8,6 6 4 13 7 SSW 1011,0 9 0 0,0
21.11.2017 00:00:00 3,0 2,1 2,0 2,3 3,8 8,6 7 4 14 8 SSW 1011,2 12 0 0,0
20.11.2017 23:00:00 3,5 2,0 2,8 2,5 3,8 8,6 6 4 16 9 SSW 1011,3 35 0 0,0
20.11.2017 22:00:00 3,0 1,8 2,3 2,1 3,8 8,6 8 4 11 6 S 1011,6 65 0 0,0
20.11.2017 21:00:00 3,3 1,9 2,4 2,2 3,9 8,6 5 3 8 5 WSW 1011,7 40 0 0,0
20.11.2017 20:00:00 3,0 1,7 2,3 2,0 4,0 8,6 5 3 15 8 NNW 1011,8 45 0 0,0
20.11.2017 19:00:00 2,7 1,2 1,0 1,9 4,2 8,6 7 4 12 6 SSW 1011,7 45 0 0,0
20.11.2017 18:00:00 3,0 1,5 1,3 2,4 4,4 8,6 6 3 14 7 SW 1011,7 50 0 0,0
20.11.2017 17:00:00 3,4 1,3 1,3 3,1 4,5 8,6 8 4 22 12 WSW 1011,7 50 0 0,0
20.11.2017 16:00:00 4,6 2,0 3,5 4,0 4,5 8,6 12 7 23 12 W 1011,8 50 0 0,0
20.11.2017 15:00:00 5,4 3,4 4,3 4,6 4,3 8,7 10 5 17 9 WSW 1011,6 35 0 0,0
20.11.2017 14:00:00 5,3 3,5 4,3 4,6 4,1 8,7 8 5 20 11 W 1011,7 37 3 0,0
20.11.2017 13:00:00 5,8 3,3 5,5 5,1 3,8 8,7 14 7 22 12 W 1011,6 40 1 0,0
20.11.2017 12:00:00 5,0 3,3 4,9 3,9 3,6 8,7 9 5 19 11 WSW 1011,5 40 15 0,0
20.11.2017 11:00:00 3,9 2,2 3,2 3,3 3,4 8,7 11 6 19 11 W 1011,4 60 0 0,4
20.11.2017 10:00:00 3,5 2,1 2,9 2,6 3,3 8,7 13 7 34 18 W 1011,5 26 0 0,8
20.11.2017 09:00:00 3,0 2,2 2,7 1,8 3,2 8,7 9 5 18 10 WSW 1011,1 8 0 0,1
20.11.2017 08:00:00 2,0 1,2 1,4 1,4 3,2 8,7 9 5 14 7 WSW 1011,0 30 0 0,6
20.11.2017 07:00:00 1,6 0,2 1,2 1,1 3,3 8,7 9 5 18 10 WSW 1010,7 4,0 0 0,2
20.11.2017 06:00:00 1,7 -0,3 1,4 0,7 3,4 8,7 13 7 20 11 SW 1010,5 58 0 0,0
20.11.2017 05:00:00 1,0 -1,2 0,0 0,6 3,6 8,7 9 5 15 8 SW 1010,6 55 0 0,0
20.11.2017 04:00:00 1,5 -1,0 -0,6 0,6 3,8 8,7 11 6 22 12 WSW 1010,6 55 0 0,0
20.11.2017 03:00:00 2,8 -0,8 1,6 1,1 4,0 8,7 16 8 23 13 W 1010,2 60 0 0,0
20.11.2017 02:00:00 2,3 -1,3 1,0 1,1 4,2 8,7 15 8 22 12 W 1010,0 65 0 0,0
20.11.2017 01:00:00 2,6 -1,4 0,7 1,7 4,4 8,7 17 9 29 16 WNW 1009,7 70 0 0,0
20.11.2017 00:00:00 3,6 -0,3 2,6 2,5 4,5 8,8 16 9 29 15 WNW 1009,3 65 0 0,0
19.11.2017 23:00:00 3,7 -0,1 2,3 2,8 4,6 8,8 20 11 41 22 WNW 1008,5 67 0 0,0
19.11.2017 22:00:00 4,3 1,3 3,0 3,4 4,7 8,8 29 16 49 27 NW 1007,3 60 0 0,5
19.11.2017 21:00:00 3,6 1,5 2,9 3,4 4,7 8,8 31 17 53 29 NW 1006,1 9 0 0,7
19.11.2017 20:00:00 3,8 1,4 2,8 3,4 4,8 8,8 30 16 56 31 NW 1004,4 26 0 0,1
19.11.2017 19:00:00 3,8 0,7 2,7 3,4 4,9 8,8 36 19 63 34 WNW 1003,5 41 0 0,1
19.11.2017 18:00:00 4,7 -0,8 3,9 3,4 5,0 8,8 37 20 60 32 WNW 1002,4 65 0 0,0
19.11.2017 17:00:00 4,7 -0,1 2,9 3,8 5,1 8,8 31 17 61 33 WNW 1002,0 50 0 0,1
19.11.2017 16:00:00 4,9 0,4 3,6 4,1 5,2 8,8 29 16 57 31 WNW 1001,7 70 1 0,0
19.11.2017 15:00:00 5,4 0,2 4,7 5,0 5,2 8,8 29 15 48 26 WNW 1001,2 64 1 0,0
19.11.2017 14:00:00 5,6 2,0 4,4 5,2 5,1 8,8 24 13 55 30 WNW 1000,6 65 6 0,1
19.11.2017 13:00:00 5,6 2,9 4,8 5,5 4,9 8,8 23 13 49 27 W 1000,0 30 4 0,1
19.11.2017 12:00:00 4,8 2,3 4,2 4,9 4,7 8,8 24 13 38 21 WNW 999,6 64 4 1,3
19.11.2017 11:00:00 5,4 3,2 4,5 4,3 4,6 8,8 26 14 42 23 W 999,1 18 0 1,7
19.11.2017 10:00:00 4,9 3,0 4,2 4,0 4,6 8,8 22 12 40 22 WSW 999,0 10 1 1,8
19.11.2017 09:00:00 3,6 2,2 3,0 3,7 4,5 8,8 30 16 52 28 WSW 999,5 12 0 0,3
19.11.2017 08:00:00 4,6 1,8 4,4 3,6 4,5 8,9 26 14 51 28 WSW 999,7 50 0 0,0
19.11.2017 07:00:00 4,4 1,7 4,2 3,4 4,5 8,9 25 13 48 26 WSW 999,8 50 0 0,0
19.11.2017 06:00:00 4,1 1,3 3,9 3,3 4,5 8,9 23 12 41 22 WSW 1000,7 55 0 0,0
19.11.2017 05:00:00 4,5 1,7 4,2 3,4 4,4 8,9 25 13 46 25 WSW 1001,3 54 0 0,0
19.11.2017 04:00:00 4,2 1,9 3,9 3,2 4,4 8,9 23 13 44 24 WSW 1002,0 50 0 0,0
19.11.2017 03:00:00 4,3 1,7 3,6 3,1 4,4 8,9 22 12 46 25 WSW 1002,6 60 0 0,0
19.11.2017 02:00:00 4,2 1,8 3,2 2,8 4,4 8,9 23 12 41 22 WSW 1003,2 47 0 0,0
19.11.2017 01:00:00 4,3 1,8 3,9 2,8 4,5 8,9 25 14 46 25 WSW 1003,8 45 0 0,0
19.11.2017 00:00:00 3,8 1,6 2,9 2,6 4,5 8,9 21 11 39 21 WSW 1004,4 35 0 0,0
18.11.2017 23:00:00 3,7 1,4 3,0 2,5 4,7 8,9 21 11 39 21 WSW 1004,8 42 0 0,0
18.11.2017 22:00:00 3,4 1,4 2,2 2,5 4,8 8,9 23 12 39 21 WSW 1005,0 35 0 0,0
18.11.2017 21:00:00 3,7 1,6 2,6 2,8 4,9 8,9 18 10 40 22 WSW 1005,3 37 0 0,0
18.11.2017 20:00:00 3,3 1,5 2,0 2,9 5,1 8,9 20 11 40 21 WSW 1005,6 44 0 0,2
18.11.2017 19:00:00 3,5 1,5 2,3 2,9 5,3 8,9 21 11 34 18 WSW 1005,6 50 0 0,0
18.11.2017 18:00:00 3,9 0,9 2,4 3,6 5,4 8,9 22 12 33 18 W 1005,8 70 0 0,0
18.11.2017 17:00:00 4,4 2,5 3,6 4,5 5,5 8,9 20 11 37 20 WSW 1005,6 70 0 0,1
18.11.2017 16:00:00 4,7 2,5 4,0 4,8 5,5 8,9 21 12 36 19 W 1005,7 38 0 0,1
18.11.2017 15:00:00 4,9 3,3 4,4 4,9 5,5 8,9 18 10 47 26 WSW 1005,8 15 0 0,5
18.11.2017 14:00:00 5,5 2,4 4,3 5,0 5,4 8,9 21 12 44 24 WSW 1005,9 14 0 0,6
18.11.2017 13:00:00 6,3 1,3 5,9 5,2 5,3 8,9 22 12 46 25 SW 1006,6 30 0 0,0
18.11.2017 12:00:00 6,1 1,3 6,0 5,0 5,2 8,9 22 12 55 30 SW 1007,9 35 0 0,0
18.11.2017 11:00:00 5,9 1,7 5,9 4,8 5,1 8,9 24 13 47 25 SW 1009,5 29 0 0,0
18.11.2017 10:00:00 5,0 1,3 4,8 4,1 5,0 8,9 21 11 40 21 SSW 1010,7 32 2 0,0
18.11.2017 09:00:00 4,7 0,8 4,8 3,6 5,1 8,9 16 8 37 20 SW 1011,9 35 9 0,0
18.11.2017 08:00:00 4,5 0,8 3,5 3,4 5,1 8,9 15 8 35 19 SSW 1012,8 35 0 0,0
18.11.2017 07:00:00 5,0 1,7 4,4 3,7 5,1 8,9 17 9 36 20 SW 1013,4 40 0 0,0
18.11.2017 06:00:00 5,0 2,1 4,5 3,5 5,2 8,9 17 9 31 17 SW 1014,4 40 0 0,0
18.11.2017 05:00:00 4,7 2,1 3,5 3,3 5,3 8,9 14 8 26 14 SW 1015,2 42 0 0,0
18.11.2017 04:00:00 4,9 2,2 3,9 3,6 5,4 8,9 13 7 26 14 SW 1016,4 36 0 0,0
18.11.2017 03:00:00 5,2 2,3 4,7 3,8 5,5 8,9 14 8 26 14 SW 1017,5 42 0 0,0
18.11.2017 02:00:00 5,2 2,3 4,3 4,1 5,5 8,9 14 7 26 14 SW 1018,3 41 0 0,0
18.11.2017 01:00:00 5,5 2,3 4,7 4,3 5,6 8,9 13 7 29 15 SW 1019,0 40 0 0,0
18.11.2017 00:00:00 5,8 2,6 5,2 4,2 5,6 8,9 14 8 27 15 SW 1019,7 40 0 0,0
17.11.2017 23:00:00 5,6 2,6 4,9 3,9 5,7 8,9 12 7 24 13 SW 1020,5 40 0 0,0
17.11.2017 22:00:00 5,5 2,4 4,8 3,9 5,9 8,9 13 7 26 14 SW 1021,1 38 0 0,0
17.11.2017 21:00:00 5,9 2,7 4,9 4,3 6,0 8,9 12 7 22 12 SW 1021,6 35 0 0,0
17.11.2017 20:00:00 5,9 2,7 4,7 4,3 6,1 8,9 11 6 23 12 SW 1022,0 38 0 0,0
17.11.2017 19:00:00 6,1 2,7 4,9 4,4 6,3 8,9 11 6 18 10 SW 1022,1 35 0 0,0
17.11.2017 18:00:00 6,3 2,9 4,5 4,9 6,5 8,9 11 6 20 11 SW 1022,4 35 0 0,0
17.11.2017 17:00:00 6,6 2,9 4,7 5,1 6,6 8,9 9 5 16 9 SW 1022,6 40 0 0,0
17.11.2017 16:00:00 7,5 3,7 5,4 6,2 6,6 8,9 9 5 23 12 WSW 1022,9 34 26 0,0
17.11.2017 15:00:00 8,8 3,5 8,3 7,2 6,4 8,9 11 6 25 14 W 1023,0 40 53 0,0
17.11.2017 14:00:00 8,9 3,9 9,6 7,2 6,1 8,9 16 9 26 14 W 1023,2 30 59 0,0
17.11.2017 13:00:00 8,5 4,2 9,8 6,6 5,9 8,9 18 10 29 15 W 1023,3 30 60 0,0
17.11.2017 12:00:00 8,0 4,2 9,0 5,6 5,7 8,9 16 9 25 14 W 1023,3 27 60 0,0

tt = Température de l'air
td = dewpoint
tt 5cm = Température de l'air 5cm
tt -5cm = Température de l'air -5cm
tt -20cm = Température de l'air -20cm
tt -100cm = Température de l'air -100cm
ff = Vitesse du vent
fx = gusts
dd = Direction du vent
ppp = reduced air pressure
vv = visibility
sd = Ensoleillement
rr = Quantités de précipitations

stations d'obs. à proximité